NIMBUS 2 DEB, 25613

Orbit data source: Space-Track

NIMBUS 2 DEB, 25613 is space debris in SSO originally from a launch on Sun, 15 May 1966 UTC launched from the Air Force Western Test Range (AFWTR). Debris objects in space refer to the collection of defunct objects orbiting the Earth. Examples of debris include non-operational satellites, rocket bodies, and fragments generated from explosions, collisions, or faulty payload assembly.

Loading next visibility...
Identifier
25613, 1966-040F
Orbit
SSO
Country
Flag of USUS
Related business
Manufacturer
Unknown
Mission
Spacecraft
Bus & Motor
Unknown
Mass
Unknown
Launch date (UTC)
1966-05-15 (60 years ago)
Launch vehicle
Unknown
Launch site
Air Force Western Test Range (AFWTR)
Object type
Payload
Rocket body
Debris
Shape & HBR
Unknown shape, 0.1 m
Radar Cross Section
Small (<0.1 m²)

Expand to show TLE details & history
Last TLE update: 3 days ago

TLE from 3 days ago
0 NIMBUS 2 DEB
1 25613U 66040F   26171.37912874  .00001539  00000-0  19389-2 0  9991
2 25613 100.4540 326.1114 0026869  66.1940 350.0853 13.65645219940041
Epoch: 2026-06-20T09:05Z
TLE epoch observation values (Epoch: 2026-06-20T09:05:56.723Z)
Latitude
54.92879°
Longitude
-94.12552°
Altitude
1,004.65 km
Speed
7.364 km/s
True Right ascension
20h 43m 49s
True Declination
54° 46' 20"
Sunlit
Object was in daylight at epoch
Visualization orbit readout
Latitude
Unknown
Longitude
Unknown
Altitude
Unknown
Speed
Unknown
Apparent Right ascension
Unknown
Apparent Declination
Unknown
Sunlit
N/A
Visualization observer readout
Local Sidereal Time
11:34:40
Azimuth
Unknown
Elevation
Unknown
Doppler factor
Unknown
Orbital elements
Apogee altitude
1,032.426 km
Perigee altitude
992.71 km
Semi-major axis
7,390.705 km
Eccentricity
0.00269
Inclination
100.454°
RAAN
326.1114°
Arg. of periapsis
66.194°
True anomaly
350.03211°
Mean anomaly
350.0853°
Eccentric anomaly
350.05872°
Mean motion
3.41597 °/min
Orbital period
105.39 mins
BSTAR
0.0019389
Loading maneuver chart data...
Computing Atmospheric mass density...
Loading historical data...
Loading historical data...
Loading historical data...
Loading historical data...
Loading historical data...
Loading historical data...
Loading historical data...

Documentation

Showing up to 5 results
|